Regional Weather Roundup
Issued by NWS Cleveland, OH

Home | Current Version | Previous Version | Graphics & Text | Print | Product List | Glossary On
Versions: 1 2 3 4 5 6 7 8 9 10 11 12 13 14 15 16 17 18 19 20 21 22 23 24 25 26 27 28 29 30 31 32 33 34 35 36 37 38 39 40 41 42 43 44 45 46 47 48 49 50
000
ASUS41 KCLE 271710
RWRCLE
OHIO REGIONAL WEATHER ROUNDUP
NATIONAL WEATHER SERVICE CLEVELAND, OH
100 PM EDT MON APR 27 2015

NOTE: "FAIR" INDICATES FEW OR NO CLOUDS BELOW 12,000 FEET WITH NO
SIGNIFICANT WEATHER AND/OR OBSTRUCTIONS TO VISIBILITY.

OHZ001>008-015>018-024>027-034-035-043-044-271800-
   NORTHWEST OHIO

CITY           SKY/WX    TMP DP  RH WIND       PRES   REMARKS
DEFIANCE       CLOUDY    53  35  50 N12       30.02S
FINDLAY        CLOUDY    50  35  56 N12       30.00S
TOLEDO EXPRESS CLOUDY    46  35  65 N12       30.03R
TOLEDO EXEC    CLOUDY    47  34  60 N9        30.03S
LIMA           CLOUDY    51  37  58 NW14      30.00R
$$

OHZ009>014-019>023-028>033-038-089-271800-
   NORTHEAST OHIO

CITY           SKY/WX    TMP DP  RH WIND       PRES   REMARKS
CLE-HOPKINS    CLOUDY    41  35  79 NW13      30.01S
CLE-LAKEFRONT  CLOUDY    42  36  79 NW12      29.98S
CUY CO. ARPT   CLOUDY    41  37  87 NW12      29.98S
LORAIN-ELYRIA  CLOUDY    41  35  79 N12       30.00S
ASHTABULA      LGT RAIN  39  36  89 NW9       29.95R FOG
AKRON-CANTON   CLOUDY    42  34  73 NW18G25   29.95S
WOOSTER        CLOUDY    43  37  79 N15       29.97S
MANSFIELD      CLOUDY    42  36  79 N13       29.98S
YOUNGSTOWN     LGT RAIN  41  36  82 NW10      29.92S
$$

OHZ042-051>053-060>062-070>072-077>081-271800-
  SOUTHWEST OHIO

CITY           SKY/WX    TMP DP  RH WIND       PRES   REMARKS
CINC-COVINGTON MOSUNNY   61  36  39 NW10G17   29.98S
CINC-LUNKEN    SUNNY     60  39  45 NW13      29.99R
HAMILTON       MOSUNNY   59  37  44 NW12G20   30.00R
DAYTON         MOSUNNY   57  35  43 N10       29.99R
WRIGHT-PAT AFB MOSUNNY   56  36  47 NW8       29.98R
DAYTON GENERAL MOSUNNY   56  36  47 NW12      29.97R
WILMINGTON     MOSUNNY   56  34  43 N8        29.97R
$$

OHZ036-037-039>041-045>050-054>059-063>069-073>076-082>088-271800-
  CENTRAL AND SOUTHEAST OHIO

CITY           SKY/WX    TMP DP  RH WIND       PRES   REMARKS
COLUMBUS       PTSUNNY   52  35  52 N13G23    29.97S
OSU AIRPORT    CLOUDY    52  34  50 N14G22    29.97R
BOLTON FIELD   PTSUNNY   54  36  50 NW10G17   29.97S
RICKENBACK AFB PTSUNNY   54  34  48 N12       29.96S
NEWARK         CLOUDY    51  35  54 NW14G23   29.96S
MARION         CLOUDY    51  34  52 N13G23    29.99S
LANCASTER      PTSUNNY   54  35  48 N10       29.97R
ZANESVILLE     CLOUDY    49  35  58 NW9       29.96S
NEW PHILLY     CLOUDY    46  35  65 N14G22    29.96S
$$



USA.gov is the U.S. government's official web portal to all federal, state and local government web resources and services.